Location: Marne
(34.0056°N, 117.9064°W)
Time: 21:59:17
(UTC+00:00)

Cosmos 1339 Rocket - Pass Details

Date: 18 January 2020
Orbit: 941 x 1006 km, 82.9° (Epoch: 19 February)

Event Time Altitude Azimuth Distance (km) Brightness Sun altitude
Rises 03:16:30 0° 352° (N) 3,610 7.5 -26.5°
Reaches altitude 10° 03:18:59 10° 351° (N) 2,664 6.8 -27.0°
Maximum altitude 03:25:03 78° 266° (W) 970 4.5 -28.2°
Drops below altitude 10° 03:31:08 10° 181° (S) 2,672 6.8 -29.5°
Sets 03:33:38 0° 180° (S) 3,623 7.6 -30.0°
